LEMUR-2-SHAINAJOHL (42771 NORAD) Tracking and Keplerian Element Data

This shows tracking and keplerian element data for the satellite.

Feedback or suggestion? Click here.




ElementValue
Catalog42771
NameLEMUR-2-SHAINAJOHL
Epoch Orbit3590
Epoch Day45.83731258
Epoch Year2018
RAAN107.2654
Inclination97.4185
Eccentricity0.0016489
Argument of Perigee130.7368
Mean Anonmoly229.5302
Mean Motion15.20692912
Decay Rate1.639E-05
L11 42771U 17036G 18045.83731258 .00001639 00000-0 77492-4 0 9995
L22 42771 97.4185 107.2654 0016489 130.7368 229.5302 15.20692912 35905

Live tracking and technical data element details for LEMUR-2-SHAINAJOHL (NORAD 42771). LEMUR-2-SHAINAJOHL can be tracked NOW for your location showing map with azimuth and elevation plus other details from your city location.

Track the satellite on the map from your city or location and see movement details for azimuth, elevation, latitude, longitude, range, height, and movement on the map or in text.







IsCatalogInMostPopularTable: catalog: 42771, numindb: 117
Update: records affected: 1



GetName: 42771 LEMUR-2-SHAINAJOHL

Hit Count: updated at: Mon, 12 Nov 2018 18:21:28 GMT